CW1309 Weather Reports


Display with metric or nautical units.
time (UTC)temp
F
wind
direction
speed
MPH
gust
MPH
rain 1hr
in
rain 24hr
in
rain mn
in
humidity
%
barometer
mb
20260904110100 80 151 0.0 0.0 0.00 0.00 0.00 97 1013.8
20260904104600 80 111 0.0 0.0 0.00 0.00 0.00 97 1013.8
20260904103059 80 111 0.0 0.0 0.00 0.00 0.00 97 1013.9
20260904101559 80 113 0.0 0.0 0.00 0.00 0.00 97 1013.7
20260904100058 80 115 0.0 0.0 0.00 0.00 0.00 97 1013.5
20260904094603 80 158 0.0 0.0 0.00 0.00 0.00 97 1013.6
20260904093100 80 159 0.0 0.0 0.00 0.00 0.00 97 1013.4
20260904091555 80 159 0.0 0.0 0.00 0.00 0.00 97 1013.3
20260904084554 80 159 0.0 0.0 0.00 0.00 0.00 96 1013.1
20260904083055 80 159 0.0 0.0 0.00 0.00 0.00 96 1013.3
20260904081551 80 159 0.0 0.0 0.00 0.00 0.00 96 1013.3
20260904080050 80 159 0.0 0.0 0.00 0.00 0.00 96 1013.4
20260904074550 81 158 0.0 0.0 0.00 0.00 0.00 96 1013.4
20260904073049 81 158 0.0 0.0 0.00 0.00 0.00 95 1013.6
20260904071559 81 158 0.0 0.0 0.00 0.00 0.00 95 1013.6
20260904064543 81 157 0.0 2.0 0.00 0.00 0.00 94 1013.9
20260904063042 81 163 0.0 3.0 0.00 0.00 0.00 94 1013.9
20260904061541 82 167 0.0 6.0 0.00 0.00 0.00 93 1013.8
20260904060038 82 186 1.0 5.0 0.00 0.00 0.00 93 1013.9
20260904054541 82 154 1.0 7.0 0.00 0.00 0.00 92 1013.9
20260904053034 82 157 2.0 5.0 0.00 0.00 0.00 92 1013.9
20260904051532 82 159 3.0 7.0 0.00 0.00 0.00 91 1013.8
20260904050029 83 173 1.0 5.0 0.00 0.00 0.00 90 1013.6
20260904044531 83 108 1.0 7.0 0.00 0.00 0.00 89 1013.5
20260904043028 83 150 1.0 8.0 0.00 0.00 0.00 88 1013.3
20260904041527 83 149 2.0 8.0 0.00 0.00 0.00 88 1013.3
20260904040035 84 144 3.0 9.0 0.00 0.00 0.00 87 1013.3
20260904034533 84 139 2.0 10.0 0.00 0.00 0.00 86 1013.3
20260904033026 84 119 4.0 10.0 0.00 0.00 0.00 86 1013.1
20260904031525 84 107 2.0 6.0 0.00 0.00 0.00 84 1013.1
20260904030125 84 109 2.0 9.0 0.00 0.00 0.00 84 1012.8
20260904024525 85 114 5.0 12.0 0.00 0.00 0.00 83 1012.7
20260904023023 85 107 4.0 9.0 0.00 0.00 0.00 82 1012.5
20260904021528 86 46 1.0 7.0 0.00 0.00 0.00 81 1012.3
20260904020022 86 99 3.0 7.0 0.00 0.00 0.00 80 1012.1
20260904014531 87 106 3.0 8.0 0.00 0.00 0.00 79 1011.9
20260904013023 87 118 4.0 11.0 0.00 0.00 0.00 79 1011.7
20260904011532 87 119 4.0 14.0 0.00 0.00 0.00 79 1011.5
20260904010020 88 111 5.0 12.0 0.00 0.00 0.00 78 1011.5
20260904004523 89 116 6.0 10.0 0.00 0.00 0.00 77 1011.4
20260904003019 89 110 7.0 13.0 0.00 0.00 0.00 77 1011.4
20260904001518 90 112 7.0 20.0 0.00 0.00 0.00 76 1011.2
20260904000017 90 101 7.0 15.0 0.00 0.00 0.00 75 1011.2
20260903234617 90 80 8.0 15.0 0.00 0.00 0.00 76 1011.1
20260903233017 89 103 6.0 13.0 0.00 0.00 0.00 77 1011.0
20260903231516 89 105 8.0 13.0 0.00 0.00 0.00 77 1011.0
20260903230017 89 88 12.0 18.0 0.00 0.00 0.00 77 1011.1
20260903224525 88 93 8.0 18.0 0.00 0.00 0.00 78 1011.1
20260903223014 89 92 12.0 25.0 0.00 0.00 0.00 78 1011.0
20260903221515 96 109 7.0 11.0 0.00 0.00 0.00 64 1010.5
20260903220028 97 112 2.0 7.0 0.00 0.00 0.00 67 1010.4
20260903214512 99 113 7.0 11.0 0.00 0.00 0.00 61 1010.2
20260903213020 99 169 1.0 10.0 0.00 0.00 0.00 61 1010.3
20260903211510 99 108 0.0 10.0 0.00 0.00 0.00 61 1010.5
20260903210009 101 111 0.0 5.0 0.00 0.00 0.00 60 1010.5
20260903204513 101 77 6.0 9.0 0.00 0.00 0.00 60 1010.6
20260903203004 99 113 1.0 6.0 0.00 0.00 0.00 60 1011.0
20260903201504 99 178 4.0 10.0 0.00 0.00 0.00 62 1011.3
20260903200002 100 86 4.0 9.0 0.00 0.00 0.00 61 1011.3
20260903194558 99 92 3.0 7.0 0.00 0.00 0.00 63 1011.5
20260903193104 99 143 2.0 10.0 0.00 0.00 0.00 63 1011.7
20260903191552 98 208 2.0 9.0 0.00 0.00 0.00 65 1011.8
20260903190052 98 161 1.0 7.0 0.00 0.00 0.00 65 1012.1
20260903184543 96 215 2.0 15.0 0.00 0.00 0.00 66 1012.4
20260903183039 97 153 4.0 9.0 0.00 0.00 0.00 67 1012.7
20260903181535 96 107 2.0 9.0 0.00 0.00 0.00 68 1012.9
20260903180031 95 194 4.0 9.0 0.00 0.00 0.00 69 1013.2
20260903174526 95 117 4.0 10.0 0.00 0.00 0.00 70 1013.3
20260903171521 93 194 7.0 13.0 0.00 0.00 0.00 73 1013.8
20260903170019 93 169 6.0 10.0 0.00 0.00 0.00 75 1013.9
20260903164516 92 193 7.0 16.0 0.00 0.00 0.00 76 1014.0
20260903163018 90 180 4.0 13.0 0.00 0.00 0.00 78 1014.3
20260903161512 88 193 3.0 13.0 0.00 0.00 0.00 81 1014.6
20260903160014 89 168 6.0 10.0 0.00 0.00 0.00 82 1014.6
20260903154505 87 194 5.0 8.0 0.00 0.00 0.00 84 1014.7
20260903153002 87 154 3.0 9.0 0.00 0.00 0.00 85 1014.6
20260903151608 86 200 6.0 12.0 0.00 0.00 0.00 87 1014.7
20260903144553 84 178 4.0 12.0 0.00 0.00 0.00 91 1014.6
20260903143056 84 198 4.0 11.0 0.00 0.00 0.00 93 1014.7
20260903141550 83 183 1.0 8.0 0.00 0.00 0.00 95 1014.7
20260903140049 82 160 7.0 12.0 0.00 0.00 0.00 95 1014.8
20260903134648 82 212 3.0 8.0 0.00 0.00 0.00 96 1014.8
20260903133048 82 186 3.0 9.0 0.00 0.00 0.00 96 1014.9
20260903131551 82 186 2.0 7.0 0.00 0.00 0.00 96 1014.7
20260903130050 81 202 3.0 8.0 0.00 0.00 0.00 97 1014.7
20260903124545 81 190 2.0 5.0 0.00 0.00 0.00 97 1014.6
20260903123043 81 164 1.0 5.0 0.00 0.00 0.00 97 1014.4
20260903121542 81 173 2.0 6.0 0.00 0.00 0.00 96 1014.3
20260903120044 81 153 2.0 7.0 0.00 0.00 0.00 96 1014.1
20260903114541 81 167 2.0 7.0 0.00 0.00 0.00 96 1014.1
20260903113040 81 173 2.0 7.0 0.00 0.00 0.00 96 1013.9
20260903111538 82 180 4.0 9.0 0.00 0.00 0.00 95 1013.9